Regional Weather Roundup
Issued by NWS

Home | Current Version | Previous Version | Graphics & Text | Print | Product List | Glossary On
Versions: 1 2 3 4 5 6 7 8 9 10 11 12 13 14 15 16 17 18 19 20 21 22 23 24 25 26 27 28 29 30 31 32 33 34 35 36 37 38 39 40 41 42 43 44 45 46 47 48 49 50
000
ASUS45 KABQ 281210
RWRNM
NEW MEXICO REGIONAL WEATHER ROUNDUP
NATIONAL WEATHER SERVICE ALBUQUERQUE NM
600 AM MDT THU APR 28 2016

NOTE: "FAIR" MEANS FEW OR NO CLOUDS BELOW 12,000 FEET AGL WITH NO
       SIGNIFICANT WEATHER OR OBSTRUCTIONS TO VISION.

      THIS PRODUCT IS RELEASED AS TWO VERSIONS.  ONE VERSION NEAR
      THE TOP OF THE HOUR CONTAINING PRELIMINARY DATA FROM ALBUQUERQUE
      AND OTHER STATIONS.  A FINAL VERSION WITH ADDITIONAL DATA IS
      ISSUED ABOUT 10 MINUTES AFTER THE HOUR.

NMZ501-503-504-510>518-281300-
NORTHWEST PLATEAU/NORTHCENTRAL MOUNTAINS

CITY           SKY/WX    TMP DP  RH WIND       PRES   REMARKS
FARMINGTON     CLOUDY    49  33  54 NE6       29.73S
6HR MIN TEMP:  48; 6HR MAX TEMP:  55;

LOS ALAMOS     CLOUDY    46  29  52 SW13G20   29.87R
SANTA FE       CLOUDY    47  28  47 S6        29.83R
6HR MIN TEMP:  43; 6HR MAX TEMP:  50; 6HR PCP: TRACE;

TAOS           CLOUDY    43  30  61 SE6       29.87R
ANGEL FIRE     CLOUDY    34  29  82 CALM      29.93S

$$
NMZ402-403-502-505>509-281300-
WESTCENTRAL MOUNTAINS/SOUTHWEST MOUNTAINS

CITY           SKY/WX    TMP DP  RH WIND       PRES   REMARKS
GALLUP         CLOUDY    47  20  34 SW9       29.77S
6HR MIN TEMP:  46; 6HR MAX TEMP:  52;

GRANTS         FAIR      41  20  43 S3        29.81S
SILVER CITY      N/A     39  16  38 N9        29.84R WCI  33

$$
NMZ407-409-411-412-281300-
SOUTHERN DESERTS

CITY           SKY/WX    TMP DP  RH WIND       PRES   REMARKS
LORDSBURG      FAIR      45  18  33 N3        29.79R
DEMING         FAIR      51  17  26 S7        29.79S
6HR MIN TEMP:  46; 6HR MAX TEMP:  58;

LAS CRUCES     FAIR      55  18  22 W7        29.81S
HOLLOMAN AFB   FAIR      58  17  20 S13       29.78R
ALAMOGORDO     FAIR      55  18  22 S13       29.79S
T OR C         FAIR      55  17  22 SW7       29.76R
6HR MIN TEMP:  52; 6HR MAX TEMP:  58;


$$
NMZ519>523-281300-
CENTRAL VALLEYS/CENTRAL HIGHLANDS

CITY           SKY/WX    TMP DP  RH WIND       PRES   REMARKS
ALBUQUERQUE    NOT AVBL
DOUBLE EAGLE   MOCLDY    54  27  35 E5        29.79S
MORIARTY ARPT  FAIR      43  26  51 N3        29.83R
6HR MIN TEMP:  40; 6HR MAX TEMP:  51;

CLINES CORNERS FAIR      40  24  53 E7        29.84R
6HR MIN TEMP:  40; 6HR MAX TEMP:  49;

BELEN          CLOUDY    56  25  30 NE5       29.77S
6HR MIN TEMP:  54; 6HR MAX TEMP:  62;

SOCORRO        FAIR      53  19  25 W8        29.77R
6HR MIN TEMP:  53; 6HR MAX TEMP:  64;


$$
NMZ524>526-539-540-281300-
SOUTHCENTRAL MOUNTAINS

CITY           SKY/WX    TMP DP  RH WIND       PRES   REMARKS
RUIDOSO          N/A     45  12  26 S9        29.89R

$$
NMZ527>531-281300-
NORTHEAST HIGHLANDS/NORTHEAST PLAINS

CITY           SKY/WX    TMP DP  RH WIND       PRES   REMARKS
LAS VEGAS      CLOUDY    40  28  62 N9        29.87F WCI  34
6HR MIN TEMP:  39; 6HR MAX TEMP:  45;

RATON          LGT RAIN  44  32  62 S7        29.91R
6HR MIN TEMP:  41; 6HR MAX TEMP:  46; 6HR PCP: TRACE;

CLAYTON        CLOUDY    42  34  73 NE13      29.90S
6HR MIN TEMP:  38; 6HR MAX TEMP:  45;


$$
NMZ532>537-281300-
EASTCENTRAL PLAINS

CITY           SKY/WX    TMP DP  RH WIND       PRES   REMARKS
TUCUMCARI      FAIR      46  35  65 NE7       29.80R
6HR MIN TEMP:  46; 6HR MAX TEMP:  60;

CANNON AFB     FAIR      45  38  76 E8        29.80R
6HR MIN TEMP:  45; 6HR MAX TEMP:  59;

CLOVIS AIRPORT FAIR      43  36  75 E8        29.82R

$$
NMZ028-029-538-281300-
SOUTHEAST PLAINS

CITY           SKY/WX    TMP DP  RH WIND       PRES   REMARKS
ROSWELL        FAIR      48  20  32 SE8       29.75R
6HR MIN TEMP:  48; 6HR MAX TEMP:  60;

ARTESIA        FAIR      50  18  27 S6        29.77R
CARLSBAD       FAIR      48  17  29 W6        29.75R
6HR MIN TEMP:  45; 6HR MAX TEMP:  61;

HOBBS          CLEAR     50  28  43 S7        29.78S


$$




USA.gov is the U.S. government's official web portal to all federal, state and local government web resources and services.